CW0156 Weather Reports


Display with metric or nautical units.
time (UTC)temp
F
wind
direction
speed
MPH
gust
MPH
rain 1hr
in
rain 24hr
in
rain mn
in
humidity
%
barometer
mb
20260510044524 51 252 0.0 2.0 0.00 0.16 0.00 76 1007.8
20260510043017 52 201 0.0 3.0 0.00 0.16 0.00 77 1007.6
20260510041522 52 205 1.0 3.0 0.00 0.16 0.00 82 1007.4
20260510040037 52 227 1.0 2.0 0.00 0.16 0.00 93 1007.2
20260510034508 51 227 0.0 1.0 0.00 0.16 0.16 92 1006.2
20260510033016 52 227 0.0 2.0 0.00 0.16 0.16 90 1006.1
20260510031516 54 179 0.0 2.0 0.00 0.16 0.16 89 1006.0
20260510030020 53 179 0.0 2.0 0.00 0.16 0.16 90 1005.7
20260510024523 54 179 0.0 3.0 0.00 0.16 0.16 90 1005.6
20260510023011 54 179 1.0 4.0 0.00 0.16 0.16 89 1005.5
20260510021517 54 182 1.0 4.0 0.00 0.16 0.16 89 1005.3
20260510020021 55 185 1.0 3.0 0.00 0.16 0.16 89 1005.1
20260510014504 55 181 2.0 5.0 0.00 0.16 0.16 89 1004.9
20260510013009 55 171 1.0 5.0 0.00 0.16 0.16 88 1004.7
20260510011517 55 184 2.0 6.0 0.00 0.16 0.16 87 1004.5
20260510010022 55 169 2.0 5.0 0.00 0.16 0.16 87 1004.1
20260510004522 56 175 2.0 7.0 0.00 0.16 0.16 86 1004.0
20260510003004 56 184 2.0 8.0 0.00 0.16 0.16 86 1003.7
20260510001509 56 186 3.0 8.0 0.00 0.16 0.16 85 1003.2
20260510000018 56 177 3.0 9.0 0.00 0.16 0.16 85 1002.7
20260509234530 56 186 3.0 10.0 0.00 0.16 0.16 85 1002.7
20260509233023 55 166 4.0 11.0 0.05 0.16 0.16 85 1002.3
20260509231504 55 170 4.0 10.0 0.09 0.16 0.16 86 1002.3
20260509230017 54 193 4.0 8.0 0.14 0.16 0.16 89 1002.3
20260509224515 53 192 4.0 10.0 0.16 0.16 0.16 90 1002.4
20260509223021 53 191 3.0 8.0 0.11 0.11 0.11 90 1003.7
20260509221523 55 207 1.0 5.0 0.07 0.07 0.07 87 1004.4
20260509220010 61 279 1.0 4.0 0.02 0.02 0.02 84 1003.7
20260509214512 62 190 0.0 4.0 0.00 0.00 0.00 79 1002.4
20260509213016 62 176 0.0 3.0 0.00 0.00 0.00 76 1002.0
20260509211519 63 184 1.0 4.0 0.00 0.00 0.00 76 1001.8
20260509210026 63 174 3.0 9.0 0.00 0.00 0.00 75 1001.6
20260509204510 63 182 1.0 8.0 0.00 0.00 0.00 75 1001.7
20260509203017 62 178 2.0 7.0 0.00 0.00 0.00 75 1001.9
20260509201517 62 196 2.0 9.0 0.00 0.00 0.00 75 1002.0
20260509200024 62 213 2.0 7.0 0.00 0.00 0.00 76 1002.3
20260509194527 62 192 3.0 10.0 0.00 0.00 0.00 75 1002.9
20260509193012 63 180 4.0 11.0 0.00 0.00 0.00 73 1002.8
20260509191519 64 199 5.0 10.0 0.00 0.00 0.00 71 1002.5
20260509190022 64 209 3.0 10.0 0.00 0.00 0.00 71 1002.6
20260509184538 63 196 3.0 10.0 0.00 0.00 0.00 71 1002.9
20260509183028 64 191 3.0 8.0 0.00 0.00 0.00 70 1003.2
20260509181514 63 192 3.0 7.0 0.00 0.00 0.00 73 1003.3
20260509180019 62 189 2.0 6.0 0.00 0.00 0.00 73 1003.5
20260509174523 63 172 3.0 10.0 0.00 0.00 0.00 71 1003.6
20260509173023 63 175 2.0 6.0 0.00 0.00 0.00 72 1003.9
20260509171537 63 200 2.0 11.0 0.00 0.00 0.00 71 1004.3
20260509170016 63 186 3.0 7.0 0.00 0.00 0.00 72 1004.4
20260509164521 64 190 3.0 8.0 0.00 0.00 0.00 70 1004.3
20260509163022 64 198 4.0 7.0 0.00 0.00 0.00 70 1004.4
20260509161530 63 180 3.0 10.0 0.00 0.00 0.00 71 1004.4
20260509160028 63 190 2.0 8.0 0.00 0.00 0.00 72 1004.7
20260509154517 63 191 3.0 8.0 0.00 0.00 0.00 71 1005.1
20260509153024 62 200 3.0 7.0 0.00 0.00 0.00 73 1005.3
20260509151525 62 224 3.0 6.0 0.00 0.00 0.00 74 1005.2
20260509150027 61 184 3.0 7.0 0.00 0.00 0.00 76 1005.1
20260509144542 60 228 1.0 5.0 0.00 0.00 0.00 81 1005.2
20260509143025 59 203 1.0 6.0 0.00 0.00 0.00 82 1005.4
20260509141534 59 186 1.0 5.0 0.00 0.00 0.00 83 1005.5
20260509140027 58 165 3.0 9.0 0.00 0.00 0.00 84 1005.6
20260509134526 57 179 2.0 6.0 0.00 0.00 0.00 86 1005.8
20260509133028 56 190 0.0 6.0 0.00 0.00 0.00 89 1005.8
20260509131524 55 207 1.0 5.0 0.00 0.00 0.00 89 1006.1
20260509130026 55 194 0.0 3.0 0.00 0.00 0.00 90 1006.2
20260509124527 54 175 1.0 3.0 0.00 0.00 0.00 90 1006.1
20260509123030 53 178 0.0 3.0 0.00 0.00 0.00 91 1006.0
20260509121532 53 167 1.0 6.0 0.00 0.00 0.00 92 1006.0
20260509120025 52 183 1.0 4.0 0.00 0.00 0.00 92 1006.2
20260509114525 51 182 0.0 3.0 0.00 0.00 0.00 92 1006.4
20260509113015 51 182 0.0 2.0 0.00 0.00 0.00 92 1006.2
20260509111519 51 182 0.0 3.0 0.00 0.00 0.00 92 1006.1
20260509110022 51 326 0.0 2.0 0.00 0.00 0.00 91 1006.1
20260509104533 51 178 1.0 7.0 0.00 0.00 0.00 91 1005.9
20260509103011 51 171 3.0 7.0 0.00 0.00 0.00 90 1005.8
20260509101519 51 184 2.0 8.0 0.00 0.02 0.00 90 1005.9
20260509100030 51 188 2.0 5.0 0.00 0.03 0.00 90 1005.9
20260509094530 51 185 2.0 7.0 0.00 0.04 0.00 90 1005.9
20260509093029 51 183 2.0 6.0 0.00 0.04 0.00 89 1006.0
20260509091517 50 184 2.0 4.0 0.00 0.04 0.00 89 1006.2
20260509090020 50 181 1.0 4.0 0.00 0.04 0.00 88 1006.5
20260509084529 49 207 1.0 5.0 0.00 0.04 0.00 86 1006.8
20260509083024 49 273 0.0 2.0 0.00 0.05 0.00 83 1007.0
20260509081540 49 273 0.0 3.0 0.00 0.05 0.00 81 1006.9
20260509080015 49 178 0.0 2.0 0.00 0.05 0.00 79 1006.8
20260509074504 49 185 0.0 3.0 0.00 0.05 0.00 75 1006.7
20260509073006 50 176 0.0 4.0 0.00 0.05 0.00 72 1006.7
20260509071514 50 189 1.0 4.0 0.00 0.05 0.00 69 1006.7
20260509070014 50 209 1.0 4.0 0.00 0.05 0.00 64 1006.8
20260509064520 50 184 2.0 4.0 0.00 0.05 0.00 63 1007.0
20260509063002 50 173 0.0 2.0 0.00 0.05 0.00 63 1007.1
20260509061507 50 185 1.0 5.0 0.00 0.05 0.00 63 1007.4
20260509060013 50 180 2.0 5.0 0.00 0.05 0.00 62 1007.7
20260509054521 50 186 2.0 7.0 0.00 0.05 0.00 62 1007.9
20260509053027 50 194 3.0 6.0 0.00 0.05 0.00 63 1008.0
20260509051505 50 190 3.0 6.0 0.00 0.05 0.00 64 1008.2
20260509050008 49 180 3.0 6.0 0.00 0.05 0.00 65 1008.3